Location: Wells
(51.2093°N, 2.6446°W)
Time: 10:26:05
(UTC+01:00)

LilacSat-2 - Pass Details

Date: 17 March 2026
Orbit: 412 x 424 km, 97.5° (Epoch: 20 April)

Event Time Altitude Azimuth Distance (km) Brightness Sun altitude
Rises 19:03:34 0° 162° (SSE) 2,392 ? -7.8°
Reaches altitude 10° 19:05:34 10° 162° (SSE) 1,530 ? -8.2°
Maximum altitude 19:08:50 80° 74° (ENE) 445 ? -8.7°
Drops below altitude 10° 19:12:08 10° 348° (NNW) 1,543 ? -9.2°
Sets 19:14:10 0° 348° (NNW) 2,415 ? -9.5°
